When you browse on this site, cookies collect data to enhance your experience and personalize the content and advertising you see.
Visit our Privacy Policy to learn more. By continuing to use the site, you agree to this use of cookies and data.
  • In Romania
  • List of Countries
  • For 7 days
  • Water Temperature
  • Satellite Maps
  • Weather Map
  • Weather Widgets
  • user-avatar
    Login

    Hourly Weather Prikumskoe

    Today, 16 July, Tuesday

    Time Temperature Precipitation Wind Pressure Humidity
    00:00 +18°C° 0.8 mm 3 mps 724 mmHg 93%
    01:00 +17°C° 0 mm 2 mps 724 mmHg 93%
    02:00 +17°C° 0 mm 2 mps 724 mmHg 93%
    03:00 +16°C° 0 mm 1 mps 724 mmHg 94%
    04:00 +18°C° 0 mm 1 mps 724 mmHg 92%
    05:00 +18°C° 0 mm 1 mps 724 mmHg 89%
    06:00 +18°C° 0 mm 1 mps 724 mmHg 87%
    07:00 +20°C° 0 mm 1 mps 724 mmHg 81%
    08:00 +22°C° 0 mm 1 mps 724 mmHg 75%
    09:00 +23°C° 0 mm 2 mps 725 mmHg 68%
    10:00 +25°C° 0 mm 1 mps 725 mmHg 64%
    11:00 +26°C° 0 mm 1 mps 725 mmHg 60%
    12:00 +28°C° 0 mm 1 mps 725 mmHg 56%
    13:00 +28°C° 0.1 mm 1 mps 725 mmHg 55%
    14:00 +29°C° 0.1 mm 2 mps 725 mmHg 54%
    15:00 +29°C° 0.1 mm 2 mps 725 mmHg 53%
    16:00 +28°C° 0.7 mm 2 mps 725 mmHg 57%
    17:00 +28°C° 0.7 mm 2 mps 725 mmHg 61%
    18:00 +27°C° 0.7 mm 1 mps 726 mmHg 66%
    19:00 +25°C° 1.4 mm 2 mps 726 mmHg 73%
    20:00 +21°C° 1.4 mm 2 mps 726 mmHg 81%
    21:00 +19°C° 1.4 mm 2 mps 726 mmHg 88%
    22:00 +18°C° 0 mm 2 mps 727 mmHg 87%
    23:00 +18°C° 0 mm 2 mps 727 mmHg 87%

    Tomorrow, 17 July, Wednesday

    Time Temperature Precipitation Wind Pressure Humidity
    00:00 +17°C° 0 mm 2 mps 727 mmHg 86%
    01:00 +17°C° 0 mm 2 mps 727 mmHg 85%
    02:00 +17°C° 0 mm 2 mps 727 mmHg 84%
    03:00 +16°C° 0 mm 2 mps 727 mmHg 83%
    04:00 +18°C° 0 mm 1 mps 727 mmHg 81%
    05:00 +19°C° 0 mm 1 mps 727 mmHg 79%
    06:00 +19°C° 0 mm 1 mps 727 mmHg 77%
    07:00 +21°C° 0 mm 1 mps 727 mmHg 70%
    08:00 +23°C° 0 mm 1 mps 727 mmHg 63%
    09:00 +24°C° 0 mm 1 mps 726 mmHg 56%
    10:00 +25°C° 0 mm 1 mps 726 mmHg 54%
    11:00 +26°C° 0 mm 2 mps 726 mmHg 51%
    12:00 +27°C° 0 mm 2 mps 726 mmHg 49%
    13:00 +28°C° 0 mm 3 mps 726 mmHg 49%
    14:00 +28°C° 0 mm 3 mps 726 mmHg 50%
    15:00 +28°C° 0 mm 3 mps 726 mmHg 50%
    16:00 +28°C° 0 mm 3 mps 726 mmHg 54%
    17:00 +27°C° 0 mm 3 mps 726 mmHg 58%
    18:00 +27°C° 0 mm 2 mps 726 mmHg 62%
    19:00 +25°C° 0 mm 2 mps 726 mmHg 67%
    20:00 +24°C° 0 mm 2 mps 726 mmHg 71%
    21:00 +22°C° 0 mm 1 mps 726 mmHg 75%
    22:00 +21°C° 0 mm 1 mps 726 mmHg 77%
    23:00 +21°C° 0 mm 1 mps 725 mmHg 79%

    Day after tomorrow, 18 July, Thursday

    Time Temperature Precipitation Wind Pressure Humidity
    00:00 +20°C° 0 mm 1 mps 725 mmHg 81%
    01:00 +20°C° 0 mm 1 mps 725 mmHg 82%
    02:00 +20°C° 0 mm 1 mps 725 mmHg 83%
    03:00 +20°C° 0 mm 1 mps 724 mmHg 83%
    04:00 +20°C° 0 mm 1 mps 724 mmHg 83%
    05:00 +21°C° 0 mm 1 mps 724 mmHg 82%
    06:00 +20°C° 0 mm 2 mps 724 mmHg 81%
    07:00 +22°C° 0 mm 3 mps 724 mmHg 75%
    08:00 +25°C° 0 mm 4 mps 724 mmHg 68%
    09:00 +27°C° 0 mm 6 mps 724 mmHg 61%
    10:00 +28°C° 0 mm 6 mps 724 mmHg 58%
    11:00 +29°C° 0 mm 6 mps 724 mmHg 55%
    12:00 +30°C° 0 mm 7 mps 724 mmHg 52%
    13:00 +30°C° 0 mm 6 mps 724 mmHg 52%
    14:00 +32°C° 0 mm 5 mps 725 mmHg 51%
    15:00 +32°C° 0 mm 5 mps 725 mmHg 51%
    16:00 +32°C° 0 mm 4 mps 725 mmHg 54%
    17:00 +30°C° 0 mm 3 mps 725 mmHg 56%
    18:00 +30°C° 0 mm 3 mps 726 mmHg 59%
    19:00 +27°C° 0.8 mm 2 mps 726 mmHg 67%
    20:00 +25°C° 0.8 mm 2 mps 726 mmHg 74%
    21:00 +23°C° 0.8 mm 2 mps 726 mmHg 82%
    22:00 +21°C° 0.6 mm 2 mps 727 mmHg 85%
    23:00 +20°C° 0.6 mm 2 mps 727 mmHg 87%

    19 July, Friday

    Time Temperature Precipitation Wind Pressure Humidity
    00:00 +20°C° 0.6 mm 2 mps 727 mmHg 90%
    01:00 +19°C° 0.2 mm 2 mps 727 mmHg 92%
    02:00 +19°C° 0.2 mm 2 mps 727 mmHg 94%
    03:00 +19°C° 0.2 mm 2 mps 728 mmHg 96%
    04:00 +19°C° 0.3 mm 2 mps 728 mmHg 96%
    05:00 +19°C° 0.3 mm 2 mps 728 mmHg 95%
    06:00 +20°C° 0.3 mm 2 mps 729 mmHg 95%
    07:00 +21°C° 0.1 mm 1 mps 729 mmHg 92%
    08:00 +22°C° 0.1 mm 1 mps 729 mmHg 90%
    09:00 +22°C° 0.1 mm 1 mps 729 mmHg 87%
    10:00 +23°C° 0 mm 1 mps 729 mmHg 84%
    11:00 +23°C° 0 mm 1 mps 729 mmHg 82%
    12:00 +24°C° 0 mm 1 mps 729 mmHg 79%
    13:00 +25°C° 0 mm 1 mps 730 mmHg 74%
    14:00 +26°C° 0 mm 2 mps 730 mmHg 70%
    15:00 +27°C° 0 mm 2 mps 730 mmHg 65%
    16:00 +27°C° 0.2 mm 2 mps 730 mmHg 66%
    17:00 +27°C° 0.2 mm 2 mps 730 mmHg 67%
    18:00 +27°C° 0.2 mm 2 mps 730 mmHg 68%
    19:00 +25°C° 0.3 mm 2 mps 730 mmHg 73%
    20:00 +24°C° 0.3 mm 1 mps 730 mmHg 77%
    21:00 +22°C° 0.3 mm 1 mps 731 mmHg 82%
    22:00 +22°C° 0 mm 1 mps 731 mmHg 84%
    23:00 +21°C° 0 mm 1 mps 731 mmHg 85%

    20 July, Saturday

    Time Temperature Precipitation Wind Pressure Humidity
    00:00 +21°C° 0 mm 1 mps 731 mmHg 87%
    01:00 +20°C° 0 mm 1 mps 731 mmHg 89%
    02:00 +20°C° 0 mm 1 mps 731 mmHg 90%
    03:00 +20°C° 0 mm 1 mps 731 mmHg 92%
    04:00 +20°C° 0 mm 1 mps 731 mmHg 90%
    05:00 +21°C° 0 mm 1 mps 732 mmHg 89%
    06:00 +21°C° 0 mm 1 mps 732 mmHg 87%
    07:00 +23°C° 0 mm 1 mps 732 mmHg 83%
    08:00 +24°C° 0 mm 1 mps 732 mmHg 79%
    09:00 +25°C° 0 mm 2 mps 732 mmHg 75%
    10:00 +26°C° 0.1 mm 3 mps 732 mmHg 70%
    11:00 +27°C° 0.1 mm 3 mps 732 mmHg 66%
    12:00 +28°C° 0.1 mm 4 mps 732 mmHg 61%
    13:00 +29°C° 0 mm 4 mps 732 mmHg 60%
    14:00 +29°C° 0 mm 5 mps 732 mmHg 58%
    15:00 +30°C° 0 mm 5 mps 731 mmHg 56%
    16:00 +30°C° 0 mm 4 mps 731 mmHg 58%
    17:00 +29°C° 0 mm 4 mps 731 mmHg 61%
    18:00 +29°C° 0 mm 3 mps 731 mmHg 63%
    19:00 +28°C° 0 mm 3 mps 731 mmHg 65%
    20:00 +27°C° 0 mm 2 mps 732 mmHg 66%
    21:00 +26°C° 0 mm 2 mps 732 mmHg 67%
    22:00 +25°C° 0 mm 2 mps 731 mmHg 68%
    23:00 +24°C° 0 mm 2 mps 731 mmHg 69%

    21 July, Sunday

    Time Temperature Precipitation Wind Pressure Humidity
    00:00 +24°C° 0 mm 2 mps 731 mmHg 70%
    01:00 +23°C° 0 mm 2 mps 731 mmHg 72%
    02:00 +23°C° 0 mm 2 mps 731 mmHg 74%
    03:00 +21°C° 0 mm 2 mps 730 mmHg 76%
    04:00 +21°C° 0 mm 2 mps 730 mmHg 77%
    05:00 +21°C° 0 mm 2 mps 730 mmHg 78%
    06:00 +23°C° 0 mm 2 mps 730 mmHg 79%
    07:00 +24°C° 0 mm 3 mps 730 mmHg 72%
    08:00 +26°C° 0 mm 5 mps 730 mmHg 66%
    09:00 +28°C° 0 mm 6 mps 730 mmHg 59%
    10:00 +29°C° 0 mm 6 mps 730 mmHg 56%
    11:00 +30°C° 0 mm 7 mps 730 mmHg 53%
    12:00 +33°C° 0 mm 7 mps 730 mmHg 50%
    13:00 +33°C° 0 mm 7 mps 729 mmHg 48%
    14:00 +34°C° 0 mm 6 mps 729 mmHg 47%
    15:00 +34°C° 0 mm 6 mps 729 mmHg 45%
    16:00 +33°C° 0 mm 5 mps 729 mmHg 48%
    17:00 +33°C° 0 mm 5 mps 730 mmHg 51%
    18:00 +32°C° 0 mm 4 mps 730 mmHg 54%
    19:00 +29°C° 0 mm 3 mps 730 mmHg 57%
    20:00 +27°C° 0 mm 3 mps 730 mmHg 60%
    21:00 +25°C° 0 mm 2 mps 730 mmHg 63%
    22:00 +25°C° 0.1 mm 2 mps 730 mmHg 65%
    23:00 +24°C° 0.1 mm 1 mps 730 mmHg 67%
    Show more